COSMOS 1285 DEB, 25839

Orbit data source: Space-Track

COSMOS 1285 DEB, 25839 is space debris in HEO originally from a launch on Tue, 04 Aug 1981 UTC launched from the Plesetsk Missile And Space Complex (PKMTR). Debris objects in space refer to the collection of defunct objects orbiting the Earth. Examples of debris include non-operational satellites, rocket bodies, and fragments generated from explosions, collisions, or faulty payload assembly.

Loading next visibility...
Identifier
25839, 1981-071H
Orbit
HEO
Country
Flag of CISCIS
Related business
Manufacturer
Unknown
Mission
Spacecraft
Bus & Motor
Unknown
Mass
Unknown
Launch date (UTC)
1981-08-04 (45 years ago)
Launch vehicle
Unknown
Launch site
Plesetsk Missile And Space Complex (PKMTR)
Object type
Payload
Rocket body
Debris
Shape & HBR
Unknown shape, 0.3 m
Radar Cross Section
Medium (>0.1 m² and <1 m²)

Expand to show TLE details & history
Last TLE update: 10 months ago

TLE from 10 months ago
0 COSMOS 1285 DEB
1 25839U 81071H   25317.66082175 -.00000569  00000-0  00000+0 0  9997
2 25839  67.2103  79.7104 6475297   6.6239   2.1040  1.98332627207885
Epoch: 2025-11-13T15:51Z
TLE epoch observation values (Epoch: 2025-11-13T15:51:34.999Z)
Latitude
18.82131°
Longitude
156.98438°
Altitude
3,152.152 km
Speed
8.293 km/s
True Right ascension
05h 51m 34s
True Declination
18° 44' 34"
Sunlit
Object was in full shadow at epoch
Visualization orbit readout
Latitude
Unknown
Longitude
Unknown
Altitude
Unknown
Speed
Unknown
Apparent Right ascension
Unknown
Apparent Declination
Unknown
Sunlit
N/A
Visualization observer readout
Local Sidereal Time
00:44:36
Azimuth
Unknown
Elevation
Unknown
Doppler factor
Unknown
Orbital elements
Apogee altitude
37,706.708 km
Perigee altitude
3,053.316 km
Semi-major axis
26,758.149 km
Eccentricity
0.64753
Inclination
67.2103°
RAAN
79.7104°
Arg. of periapsis
6.6239°
True anomaly
12.82097°
Mean anomaly
2.104°
Eccentric anomaly
5.94966°
Mean motion
0.49586 °/min
Orbital period
726.01 mins
BSTAR
0
Loading maneuver chart data...
Computing Atmospheric mass density...
Loading historical data...
Loading historical data...
Loading historical data...
Loading historical data...
Loading historical data...
Loading historical data...
Loading historical data...

Documentation

Showing up to 5 results
|